STARLINK-6267, 56400

Orbit data source: Space-Track

STARLINK-6267, 56400 is a payload satellite owned by SpaceX/Seattle (US) in LEO that was launched on Thu, 04 May 2023 UTC via an FALCON 9 launch vehicle from the Air Force Eastern Test Range (AFETR). Payload-class satellites include a variety of spacecraft equipped with specific instruments for various scientific and technological missions. These include communications satellites like Starlink; space stations such as the ISS; scientific satellites like the Hubble; Earth observation satellites from companies like Planet Labs, Umbra, and HawkEye 360; GPS; miniature CubeSats for education and research; and military/defense satellites.

Loading next visibility...
Identifier
56400, 2023-061AC
Orbit
LEO
Country
Flag of USUS
Related business
Manufacturer
SpaceX/Seattle
Mission
Operational Commercial Communications
Bus & Motor
STARLINK, Unknown motor
Mass
305 kg wet, ~290 kg dry
Launch date (UTC)
2023-05-04 (3 years ago)
Launch vehicle
FALCON 9
Launch site
Air Force Eastern Test Range (AFETR)
Object type
Payload
Rocket body
Debris
Shape & HBR
Box + 1 Pan, 10.1 m
Radar Cross Section
11.087 m², Large (>1 m²)

Expand to show TLE details & history
Last TLE update: 2 days ago

TLE from 2 days ago
0 STARLINK-6267
1 56400U 23061AC  26171.46476669 -.00000173  00000-0  32290-5 0  9995
2 56400  43.0026 326.5439 0001319 268.0813  91.9888 15.27574033172590
Epoch: 2026-06-20T11:09Z
TLE epoch observation values (Epoch: 2026-06-20T11:09:15.842Z)
Latitude
0.00003°
Longitude
-109.45109°
Altitude
482.874 km
Speed
7.626 km/s
True Right ascension
21h 46m 10s
True Declination
0° 00' 00"
Sunlit
Object was in full shadow at epoch
Visualization orbit readout
Latitude
Unknown
Longitude
Unknown
Altitude
Unknown
Speed
Unknown
Apparent Right ascension
Unknown
Apparent Declination
Unknown
Sunlit
N/A
Visualization observer readout
Local Sidereal Time
21:49:43
Azimuth
Unknown
Elevation
Unknown
Doppler factor
Unknown
Orbital elements
Apogee altitude
485.917 km
Perigee altitude
484.106 km
Semi-major axis
6,863.149 km
Eccentricity
0.00013
Inclination
43.0026°
RAAN
326.5439°
Arg. of periapsis
268.0813°
True anomaly
92.00391°
Mean anomaly
91.9888°
Eccentric anomaly
91.99635°
Mean motion
3.81732 °/min
Orbital period
94.31 mins
BSTAR
0.000003229
Loading maneuver chart data...
Computing Atmospheric mass density...

Documentation

Showing up to 5 results
|